Garden City, KS

2:22 AM CDT on April 24, 2018 (GMT -0500)
Garden City Regional

Weather History for KGCK - August, 2013

Change the Weather History Date:

Saturday, August 24, 2013

  Actual Average Record
Temperature  
Mean Temperature 80 °F 76 °F  
Max Temperature 94 °F 89 °F 106 °F (1964)
Min Temperature 66 °F 63 °F 52 °F (2015)
Degree Days  
Heating Degree Days 0 0  
Month to date heating degree days 0 0  
Since 1 June heating degree days 12 17  
Since 1 July heating degree days 0 1  
Cooling Degree Days 15 11  
Month to date cooling degree days 242 295  
Year to date cooling degree days 1224 1046  
Since 1 June cooling degree days 1077 957  
Growing Degree Days 30 (Base 50)    
Moisture  
Dew Point 59 °F    
Average Humidity 55    
Maximum Humidity 81    
Minimum Humidity 28    
Precipitation  
Precipitation 0.00 in 0.07 in 3.10 in (1969)
Month to date precipitation 4.92 2.02  
Year to date precipitation 10.16 15.22  
Sea Level Pressure  
Sea Level Pressure 29.95 in    
Wind  
Wind Speed 13 mph (SSE)    
Max Wind Speed 26 mph    
Max Gust Speed 36 mph    
Visibility 10 miles    
Events      
T = Trace of Precipitation, MM = Missing Value Source: NWS Daily Summary

Daily Weather History Graph

Daily Weather History Graph

Search for Another Location

Airport or City:

Astronomy

Aug. 24, 2013 Rise Set
Actual Time 7:06 AM CDT 8:23 PM CDT
Civil Twilight 6:38 AM CDT 8:50 PM CDT
Nautical Twilight 6:06 AM CDT 9:23 PM CDT
Astronomical Twilight 5:31 AM CDT 9:57 PM CDT
Moon 10:24 PM CDT 11:02 AM CDT
Length of Visible Light 14h 11m
Length of Day
13h 17m
Waning Gibbous, 84% of the Moon is Illuminated
Aug 24
Waning Gibbous
Aug 28
Last Quarter
Sep 5
New
Sep 12
First Quarter
Sep 19
Full

Hourly Weather History & Observations

Time (CDT) Temp. Heat Index Dew Point Humidity Pressure Visibility Wind Dir Wind Speed Gust Speed Precip Events Conditions
12:54 AM 73.0 °F - 57.0 °F 57% 29.91 in 10.0 mi South 8.1 mph - N/A   Clear
1:54 AM 70.0 °F - 57.0 °F 63% 29.92 in 10.0 mi SE 6.9 mph - N/A   Clear
2:54 AM 70.0 °F - 57.0 °F 63% 29.92 in 10.0 mi SSE 9.2 mph - N/A   Clear
3:54 AM 69.1 °F - 59.0 °F 70% 29.93 in 10.0 mi SSE 6.9 mph - N/A   Clear
4:54 AM 68.0 °F - 60.1 °F 76% 29.93 in 10.0 mi South 6.9 mph - N/A   Clear
5:54 AM 68.0 °F - 61.0 °F 78% 29.93 in 10.0 mi SSE 6.9 mph - N/A   Clear
6:54 AM 66.9 °F - 61.0 °F 81% 29.95 in 10.0 mi South 8.1 mph - N/A   Clear
7:54 AM 66.9 °F - 61.0 °F 81% 29.97 in 10.0 mi SSE 6.9 mph - N/A   Clear
8:54 AM 73.0 °F - 62.1 °F 68% 29.98 in 10.0 mi South 9.2 mph - N/A   Clear
9:54 AM 80.1 °F 81.1 °F 61.0 °F 52% 29.97 in 10.0 mi South 13.8 mph - N/A   Clear
10:54 AM 84.0 °F 84.5 °F 62.1 °F 47% 29.97 in 10.0 mi South 16.1 mph 20.7 mph N/A   Clear
11:54 AM 88.0 °F 87.6 °F 60.1 °F 39% 29.98 in 10.0 mi South 18.4 mph 26.5 mph N/A   Clear
12:54 PM 90.0 °F 89.1 °F 59.0 °F 35% 29.96 in 10.0 mi South 19.6 mph 28.8 mph N/A   Clear
1:54 PM 91.9 °F 90.8 °F 57.9 °F 32% 29.96 in 10.0 mi South 19.6 mph 28.8 mph N/A   Clear
2:54 PM 93.0 °F 92.0 °F 57.9 °F 31% 29.94 in 10.0 mi South 17.3 mph 27.6 mph N/A   Clear
3:54 PM 93.0 °F 92.0 °F 57.9 °F 31% 29.93 in 10.0 mi South 20.7 mph 28.8 mph N/A   Clear
4:54 PM 93.0 °F 91.4 °F 55.9 °F 29% 29.91 in 10.0 mi South 17.3 mph 29.9 mph N/A   Clear
5:54 PM 93.0 °F 91.7 °F 57.0 °F 30% 29.91 in 10.0 mi South 19.6 mph 24.2 mph N/A   Clear
6:54 PM 90.0 °F 88.8 °F 57.9 °F 34% 29.92 in 10.0 mi SSE 16.1 mph 26.5 mph N/A   Clear
7:54 PM 87.1 °F 86.5 °F 59.0 °F 39% 29.93 in 10.0 mi SSE 13.8 mph - N/A   Clear
8:54 PM 82.0 °F 82.7 °F 61.0 °F 49% 29.95 in 10.0 mi SSE 12.7 mph - N/A   Clear
9:54 PM 80.1 °F 80.9 °F 60.1 °F 50% 29.97 in 10.0 mi SSE 12.7 mph - N/A   Clear
10:54 PM 77.0 °F - 60.1 °F 56% 29.98 in 10.0 mi SSE 11.5 mph - N/A   Clear
11:54 PM 75.9 °F - 60.1 °F 58% 29.99 in 10.0 mi SSE 11.5 mph 18.4 mph N/A   Clear